sat.trackr.live / text

‹ back to catalog

CARTOSAT-2A

NORAD 32783 · 2008-021A

PAYLOAD ACTIVE UNKNOWN

§ Identity

Operator
Country
IND
Launch date
2008-04-28
Launch site
SRILR
Launch vehicle
Mass (kg)
RCS (m²)
2.32

Purposes: earth_obs

External: N2YO · Heavens-Above · Gunter

§ Orbital elements

Epoch: 2026-05-25T04:23:02.141952Z

Period
97.35 min
Inclination
97.7648°
Eccentricity
0.0011667
Mean motion
14.79200643 rev/d
Perigee alt
623.7 km
Apogee alt
640.0 km
Semi-major
7,010.0 km
B*
1.1215e-4
RAAN
194.6755°
Arg perigee
179.1004°
Mean anomaly
181.0231°
Rev number
97,540

§ Raw data

CARTOSAT-2A1 32783U 08021A   26145.18266368  .00000783  00000+0  11215-3 0  99922 32783  97.7648 194.6755 0011667 179.1004 181.0231 14.79200643975403

JSON: /api/v1/satellites/32783 · /tle

For live sub-satellite position, see the globe view (requires WebGL).

§ Visibility from observer

Set your observer location to see the next 7 days of passes ≥ 10°. The values pass through the URL so the page stays shareable.

No JS? Fill the form by hand. The geolocation button needs JavaScript.

§ Radio — SatNOGS DB

ModeDescriptionDownlinkUplink
CW Beacon 2.246 GHz

1 transmitter · refreshed weekly from db.satnogs.org